+ View the NASA Portal
+ Center for Near-Earth Object Studies
IMPORTANT:
The SSD Announcement email list is now available. Major changes are coming in the near future, including possible hostname and/or URL changes. To be notified of such changes, subscribe to this email list.
Please visit
this page
for more details.
Don't show this message again
JPL Small-Body Database Browser
Search:
[
help
]
46412 (2002 GL76)
Classification:
Main-belt Asteroid
SPK-ID:
2046412
[
Ephemeris
|
Orbit Diagram
|
Orbital Elements
|
Mission Design
|
Physical Parameters
|
Discovery Circumstances
|
Close-Approach Data
]
[ show orbit diagram ]
Orbital Elements at Epoch 2458600.5 (2019-Apr-27.0) TDB
Reference:
JPL 20
(heliocentric ecliptic J2000)
Element
Value
Uncertainty (1-sigma)
Units
e
.07754176678229668
4.5306e-08
a
3.161946082245695
2.786e-08
au
q
2.916763196558003
1.5341e-07
au
i
10.4838646870891
5.1051e-06
deg
node
96.34031082738868
2.8366e-05
deg
peri
214.8110458147084
4.5408e-05
deg
M
292.9881619323977
3.5098e-05
deg
t
p
2458982.777860320887
(2020-May-13.27786032)
0.00020038
TDB
period
2053.66743673986
5.62
2.7142e-05
7.431e-08
d
yr
n
.1752961524147698
2.3168e-09
deg/d
Q
3.407128967933387
3.002e-08
au
Orbit Determination Parameters
# obs. used (total)
706
data-arc span
8064 days (22.08 yr)
first obs. used
1997-06-29
last obs. used
2019-07-28
planetary ephem.
DE431
SB-pert. ephem.
SB431-N16
condition code
0
norm. resid. RMS
.53951
source
ORB
producer
Otto Matic
solution date
2019-Nov-07 06:27:01
Additional Information
Earth MOID
= 1.90797 au
Jupiter MOID
= 1.79921 au
T_jup
= 3.174
[ show covariance matrix ]
[
Ephemeris
|
Orbit Diagram
|
Orbital Elements
|
Mission Design
|
Physical Parameters
|
Discovery Circumstances
|
Close-Approach Data
]
Physical Parameter Table
Parameter
Symbol
Value
Units
Sigma
Reference
Notes
absolute magnitude
H
14.3
n/a
MPO351161
46412 (2002 GL76)
Discovered 2002-Apr-09 by LINEAR at Socorro
Reference:
20020822/Numbers.arc
Last Updated:
2004-04-19
[ show close-approach data ]
Alternate Designations
2002 GL76
= 2001 DB16
[
Ephemeris
|
Orbit Diagram
|
Orbital Elements
|
Mission Design
|
Physical Parameters
|
Discovery Circumstances
|
Close-Approach Data
]
2019-Dec-16 13:46 UT
(server date/time)
Site Manager:
Ryan S. Park
Webmaster
:
Alan B. Chamberlin